Terminal Aerodrome Forecast
Issued by NWS Pittsburgh, PA

Current Version | Previous Version | Graphics & Text | Print | Product List | Glossary On
Versions: 1 2 3 4 5 6 7 8 9 10 11 12 13 14 15 16 17 18 19 20 21 22 23 24 25 26 27 28 29 30
000
FTUS41 KPBZ 210500
TAFPIT
TAF
KPIT 210538Z 2106/2212 27010KT 6SM -SN BKN020
      TEMPO 2106/2107 4SM -SN BKN020
     FM210700 28009KT P6SM FEW025 BKN040
     FM211800 27006KT P6SM FEW040=

USA.gov is the U.S. government's official web portal to all federal, state and local government web resources and services.